Time,TemperatureF,DewpointF,PressureIn,WindDirection,WindDirectionDegrees,WindSpeedMPH,WindSpeedGustMPH,Humidity,HourlyPrecipIn,Conditions,Clouds,dailyrainin,SoftwareType,DateUTC
2013-02-19 00:00:00,51.6,45.0,30.27,East,90,0.0,0.0,77,0.00,,,0.00,JAVA,2013-02-19 05:00:00,
2013-02-19 00:01:00,51.6,45.0,30.27,NE,45,0.0,0.0,77,0.00,,,0.00,JAVA,2013-02-19 05:01:00,
2013-02-19 00:05:00,51.4,45.0,30.27,NE,45,0.0,0.0,77,0.00,,,0.00,JAVA,2013-02-19 05:05:00,
2013-02-19 00:10:00,51.4,44.9,30.27,NE,45,0.0,0.0,77,0.00,,,0.00,JAVA,2013-02-19 05:10:00,
2013-02-19 00:15:00,51.1,44.9,30.27,NE,45,0.0,0.0,78,0.00,,,0.00,JAVA,2013-02-19 05:15:00,
2013-02-19 00:20:00,50.8,44.7,30.27,NE,45,0.0,0.0,78,0.00,,,0.00,JAVA,2013-02-19 05:20:00,
2013-02-19 00:25:00,50.6,44.6,30.26,NE,45,0.0,0.0,78,0.00,,,0.00,JAVA,2013-02-19 05:25:00,
2013-02-19 00:30:00,50.3,44.5,30.26,NE,45,0.0,0.0,78,0.00,,,0.00,JAVA,2013-02-19 05:30:00,
2013-02-19 00:35:00,50.3,44.4,30.26,NE,45,0.0,0.0,78,0.00,,,0.00,JAVA,2013-02-19 05:35:00,
2013-02-19 00:40:00,50.2,44.2,30.26,SE,135,0.5,2.5,79,0.00,,,0.00,JAVA,2013-02-19 05:40:00,
2013-02-19 00:45:00,50.1,44.2,30.26,North,0,0.0,0.0,79,0.00,,,0.00,JAVA,2013-02-19 05:45:00,
2013-02-19 00:50:00,50.1,44.1,30.26,NE,45,0.0,0.0,80,0.00,,,0.00,JAVA,2013-02-19 05:50:00,
2013-02-19 00:55:00,50.1,44.1,30.25,North,0,0.0,0.0,80,0.00,,,0.00,JAVA,2013-02-19 05:55:00,
2013-02-19 01:01:00,50.3,44.1,30.26,North,0,0.0,0.0,81,0.00,,,0.00,JAVA,2013-02-19 06:01:00,
2013-02-19 01:06:00,50.2,44.2,30.25,East,90,0.0,0.0,81,0.00,,,0.00,JAVA,2013-02-19 06:06:00,
2013-02-19 01:11:00,50.3,44.3,30.25,NE,45,0.0,0.0,82,0.00,,,0.00,JAVA,2013-02-19 06:11:00,
2013-02-19 01:16:00,50.1,44.4,30.25,NE,45,0.0,0.0,82,0.00,,,0.00,JAVA,2013-02-19 06:16:00,
2013-02-19 01:21:00,50.1,44.5,30.25,North,0,0.0,0.0,82,0.00,,,0.00,JAVA,2013-02-19 06:21:00,
2013-02-19 01:26:00,50.2,44.6,30.25,NE,45,0.0,0.0,82,0.00,,,0.00,JAVA,2013-02-19 06:26:00,
2013-02-19 01:31:00,50.2,44.7,30.24,NE,45,0.0,0.0,82,0.00,,,0.00,JAVA,2013-02-19 06:31:00,
2013-02-19 01:36:00,50.2,44.9,30.25,North,0,0.0,0.0,83,0.00,,,0.00,JAVA,2013-02-19 06:36:00,
2013-02-19 01:41:00,50.5,45.0,30.24,North,0,0.0,0.0,83,0.00,,,0.00,JAVA,2013-02-19 06:41:00,
2013-02-19 01:47:00,50.6,45.1,30.24,North,0,0.0,0.0,83,0.00,,,0.00,JAVA,2013-02-19 06:47:00,
2013-02-19 01:52:00,50.8,45.2,30.24,North,0,0.0,0.0,83,0.00,,,0.00,JAVA,2013-02-19 06:52:00,
2013-02-19 01:57:00,50.9,45.3,30.24,North,0,0.0,0.0,83,0.00,,,0.00,JAVA,2013-02-19 06:57:00,
2013-02-19 02:02:00,50.9,45.5,30.24,North,0,0.0,0.0,84,0.00,,,0.00,JAVA,2013-02-19 07:02:00,
2013-02-19 02:07:00,50.8,45.6,30.24,NNE,22,0.0,0.0,84,0.00,,,0.00,JAVA,2013-02-19 07:07:00,
2013-02-19 02:12:00,50.7,45.7,30.24,NE,45,0.0,0.0,84,0.00,,,0.00,JAVA,2013-02-19 07:12:00,
2013-02-19 02:17:00,50.6,45.8,30.24,North,0,0.0,0.0,84,0.00,,,0.00,JAVA,2013-02-19 07:17:00,
2013-02-19 02:22:00,51.0,46.0,30.24,South,180,0.0,0.0,85,0.00,,,0.00,JAVA,2013-02-19 07:22:00,
2013-02-19 02:27:00,51.2,46.1,30.23,NW,315,0.0,0.0,85,0.00,,,0.00,JAVA,2013-02-19 07:27:00,
2013-02-19 02:33:00,51.5,46.3,30.23,NW,315,0.0,0.0,85,0.00,,,0.00,JAVA,2013-02-19 07:33:00,
2013-02-19 02:38:00,51.6,46.4,30.23,North,0,0.0,0.0,85,0.00,,,0.00,JAVA,2013-02-19 07:38:00,
2013-02-19 02:43:00,51.7,46.6,30.23,NW,315,0.0,0.0,86,0.00,,,0.00,JAVA,2013-02-19 07:43:00,
2013-02-19 02:48:00,51.9,46.8,30.23,West,270,0.0,0.0,86,0.00,,,0.00,JAVA,2013-02-19 07:48:00,
2013-02-19 02:53:00,52.0,47.0,30.22,South,180,0.0,0.0,86,0.00,,,0.00,JAVA,2013-02-19 07:53:00,
2013-02-19 02:58:00,52.0,47.2,30.23,NW,315,0.0,0.0,86,0.00,,,0.00,JAVA,2013-02-19 07:58:00,
2013-02-19 03:03:00,52.1,47.5,30.23,WNW,292,0.0,0.0,87,0.00,,,0.00,JAVA,2013-02-19 08:03:00,
2013-02-19 03:08:00,52.4,47.7,30.23,NNE,22,0.0,0.0,87,0.00,,,0.00,JAVA,2013-02-19 08:08:00,
2013-02-19 03:13:00,52.6,47.9,30.23,West,270,0.0,0.0,87,0.00,,,0.00,JAVA,2013-02-19 08:13:00,
2013-02-19 03:18:00,52.9,48.1,30.23,NW,315,0.0,0.0,87,0.00,,,0.00,JAVA,2013-02-19 08:18:00,
2013-02-19 03:23:00,53.2,48.3,30.23,NW,315,0.0,0.0,87,0.00,,,0.00,JAVA,2013-02-19 08:23:00,
2013-02-19 03:29:00,53.3,48.6,30.23,NW,315,0.0,0.0,87,0.00,,,0.00,JAVA,2013-02-19 08:29:00,
2013-02-19 03:34:00,53.4,48.8,30.23,WNW,292,0.0,0.0,88,0.00,,,0.00,JAVA,2013-02-19 08:34:00,
2013-02-19 03:39:00,53.3,49.0,30.22,NNW,337,0.0,0.0,88,0.00,,,0.00,JAVA,2013-02-19 08:39:00,
2013-02-19 03:44:00,53.3,49.2,30.22,NW,315,0.0,0.0,88,0.00,,,0.00,JAVA,2013-02-19 08:44:00,
2013-02-19 03:49:00,53.3,49.3,30.22,West,270,0.0,0.0,88,0.00,,,0.00,JAVA,2013-02-19 08:49:00,
2013-02-19 03:54:00,53.3,49.5,30.22,North,0,0.0,0.0,88,0.00,,,0.00,JAVA,2013-02-19 08:54:00,
2013-02-19 03:59:00,53.5,49.6,30.22,North,0,0.1,0.5,88,0.00,,,0.00,JAVA,2013-02-19 08:59:00,
2013-02-19 04:04:00,53.6,49.7,30.22,NW,315,0.0,0.0,88,0.00,,,0.00,JAVA,2013-02-19 09:04:00,
2013-02-19 04:09:00,53.8,49.8,30.22,NW,315,0.0,0.0,88,0.00,,,0.00,JAVA,2013-02-19 09:09:00,
2013-02-19 04:14:00,53.8,49.9,30.22,North,0,0.0,0.0,88,0.00,,,0.00,JAVA,2013-02-19 09:14:00,
2013-02-19 04:19:00,54.1,49.9,30.22,NW,315,0.0,0.0,88,0.00,,,0.00,JAVA,2013-02-19 09:19:00,
2013-02-19 04:25:00,54.2,50.1,30.21,West,270,0.0,0.0,88,0.00,,,0.00,JAVA,2013-02-19 09:25:00,
2013-02-19 04:30:00,54.2,50.2,30.21,West,270,0.0,0.2,88,0.00,,,0.00,JAVA,2013-02-19 09:30:00,
2013-02-19 04:35:00,54.2,50.3,30.21,WNW,292,0.5,0.9,89,0.00,,,0.00,JAVA,2013-02-19 09:35:00,
2013-02-19 04:40:00,54.2,50.5,30.21,West,270,0.1,0.5,89,0.00,,,0.00,JAVA,2013-02-19 09:40:00,
2013-02-19 04:45:00,54.3,50.6,30.21,NW,315,0.0,0.2,89,0.00,,,0.00,JAVA,2013-02-19 09:45:00,
2013-02-19 04:50:00,54.4,50.7,30.21,SW,225,0.7,2.0,89,0.00,,,0.00,JAVA,2013-02-19 09:50:00,
2013-02-19 04:55:00,54.6,50.8,30.21,SSE,157,0.6,1.3,89,0.00,,,0.00,JAVA,2013-02-19 09:55:00,
2013-02-19 05:01:00,54.6,50.9,30.21,North,0,0.0,0.0,89,0.00,,,0.00,JAVA,2013-02-19 10:01:00,
2013-02-19 05:06:00,54.6,51.1,30.21,North,0,0.0,0.0,90,0.00,,,0.00,JAVA,2013-02-19 10:06:00,
2013-02-19 05:11:00,54.6,51.2,30.22,North,0,0.0,0.0,90,0.00,,,0.00,JAVA,2013-02-19 10:11:00,
2013-02-19 05:16:00,54.6,51.3,30.21,North,0,0.0,0.0,90,0.00,,,0.00,JAVA,2013-02-19 10:16:00,
2013-02-19 05:21:00,54.6,51.4,30.22,NW,315,0.0,0.0,90,0.00,,,0.00,JAVA,2013-02-19 10:21:00,
2013-02-19 05:26:00,54.5,51.5,30.21,West,270,0.0,0.0,90,0.00,,,0.00,JAVA,2013-02-19 10:26:00,
2013-02-19 05:31:00,54.4,51.5,30.21,East,90,0.0,0.0,90,0.00,,,0.00,JAVA,2013-02-19 10:31:00,
2013-02-19 05:36:00,54.2,51.5,30.21,SW,225,0.0,0.0,89,0.00,,,0.00,JAVA,2013-02-19 10:36:00,
2013-02-19 05:41:00,53.9,51.5,30.21,SE,135,0.0,0.0,89,0.00,,,0.00,JAVA,2013-02-19 10:41:00,
2013-02-19 05:46:00,53.8,51.4,30.22,WNW,292,0.0,0.0,89,0.00,,,0.00,JAVA,2013-02-19 10:46:00,
2013-02-19 05:51:00,53.7,51.3,30.22,NW,315,0.2,0.3,89,0.00,,,0.00,JAVA,2013-02-19 10:51:00,
2013-02-19 05:56:00,53.7,51.1,30.22,WNW,292,0.0,0.1,89,0.00,,,0.00,JAVA,2013-02-19 10:56:00,
2013-02-19 06:02:00,53.7,51.0,30.22,North,0,0.2,0.7,89,0.00,,,0.00,JAVA,2013-02-19 11:02:00,
2013-02-19 06:07:00,53.7,50.9,30.22,North,0,0.1,0.6,90,0.00,,,0.00,JAVA,2013-02-19 11:07:00,
2013-02-19 06:12:00,53.8,50.8,30.23,WNW,292,0.0,0.2,90,0.00,,,0.00,JAVA,2013-02-19 11:12:00,
2013-02-19 06:17:00,53.9,50.8,30.23,North,0,0.0,0.3,90,0.00,,,0.00,JAVA,2013-02-19 11:17:00,
2013-02-19 06:22:00,54.2,50.8,30.23,South,180,0.7,2.3,90,0.00,,,0.00,JAVA,2013-02-19 11:22:00,
2013-02-19 06:27:00,54.4,50.8,30.23,SW,225,0.3,0.8,91,0.00,,,0.00,JAVA,2013-02-19 11:27:00,
2013-02-19 06:32:00,54.8,51.0,30.23,SSW,202,1.4,2.6,91,0.00,,,0.00,JAVA,2013-02-19 11:32:00,
2013-02-19 06:37:00,55.2,51.2,30.23,WSW,247,0.1,0.5,91,0.00,,,0.00,JAVA,2013-02-19 11:37:00,
2013-02-19 06:42:00,55.4,51.4,30.23,SW,225,0.0,0.0,91,0.00,,,0.00,JAVA,2013-02-19 11:42:00,
2013-02-19 06:47:00,55.6,51.7,30.23,East,90,0.0,0.0,91,0.00,,,0.00,JAVA,2013-02-19 11:47:00,
2013-02-19 06:52:00,55.9,52.0,30.23,ENE,67,0.0,0.0,91,0.00,,,0.00,JAVA,2013-02-19 11:52:00,
2013-02-19 06:58:00,56.0,52.3,30.23,North,0,0.0,0.0,91,0.00,,,0.00,JAVA,2013-02-19 11:58:00,
2013-02-19 07:03:00,56.2,52.5,30.22,North,0,0.0,0.0,91,0.00,,,0.00,JAVA,2013-02-19 12:03:00,
2013-02-19 07:08:00,56.3,52.8,30.22,NE,45,0.0,0.0,91,0.00,,,0.00,JAVA,2013-02-19 12:08:00,
2013-02-19 07:13:00,56.4,53.0,30.23,NE,45,0.0,0.0,90,0.00,,,0.00,JAVA,2013-02-19 12:13:00,
2013-02-19 07:18:00,56.6,53.2,30.22,ESE,112,0.2,0.6,90,0.00,,,0.00,JAVA,2013-02-19 12:18:00,
2013-02-19 07:23:00,56.8,53.3,30.22,South,180,0.0,0.0,90,0.00,,,0.00,JAVA,2013-02-19 12:23:00,
2013-02-19 07:28:00,57.1,53.4,30.22,ESE,112,0.0,0.0,90,0.00,,,0.00,JAVA,2013-02-19 12:28:00,
2013-02-19 07:33:00,57.5,53.6,30.23,NE,45,0.0,0.0,90,0.00,,,0.00,JAVA,2013-02-19 12:33:00,
2013-02-19 07:39:00,58.1,53.8,30.22,ESE,112,0.1,0.2,90,0.00,,,0.00,JAVA,2013-02-19 12:39:00,
2013-02-19 07:44:00,58.6,54.0,30.22,NE,45,0.0,0.1,90,0.00,,,0.00,JAVA,2013-02-19 12:44:00,
2013-02-19 07:49:00,59.1,54.3,30.22,SE,135,0.1,0.4,90,0.00,,,0.00,JAVA,2013-02-19 12:49:00,
2013-02-19 07:54:00,59.5,54.7,30.22,NE,45,0.0,0.0,90,0.00,,,0.00,JAVA,2013-02-19 12:54:00,
2013-02-19 07:59:00,59.7,55.0,30.22,SSW,202,0.3,1.5,90,0.00,,,0.00,JAVA,2013-02-19 12:59:00,
2013-02-19 08:04:00,60.0,55.4,30.23,SE,135,0.6,1.5,90,0.00,,,0.00,JAVA,2013-02-19 13:04:00,
2013-02-19 08:09:00,60.6,55.9,30.23,SE,135,0.2,1.0,90,0.00,,,0.00,JAVA,2013-02-19 13:09:00,
2013-02-19 08:14:00,61.6,56.4,30.22,SSW,202,0.1,0.5,91,0.00,,,0.00,JAVA,2013-02-19 13:14:00,
2013-02-19 08:19:00,62.4,56.9,30.22,SSW,202,0.3,1.2,91,0.00,,,0.00,JAVA,2013-02-19 13:19:00,
2013-02-19 08:25:00,63.5,57.5,30.22,SSE,157,0.3,1.9,91,0.00,,,0.00,JAVA,2013-02-19 13:25:00,
2013-02-19 08:30:00,64.5,58.1,30.24,East,90,0.7,1.5,91,0.00,,,0.00,JAVA,2013-02-19 13:30:00,
2013-02-19 08:35:00,65.3,58.8,30.24,SSE,157,0.3,1.3,91,0.00,,,0.00,JAVA,2013-02-19 13:35:00,
2013-02-19 08:40:00,66.2,59.6,30.23,East,90,0.8,1.4,90,0.00,,,0.00,JAVA,2013-02-19 13:40:00,
2013-02-19 08:45:00,66.9,60.3,30.23,ESE,112,1.0,2.1,88,0.00,,,0.00,JAVA,2013-02-19 13:45:00,
2013-02-19 08:50:00,67.3,61.0,30.23,South,180,0.9,2.6,87,0.00,,,0.00,JAVA,2013-02-19 13:50:00,
2013-02-19 08:55:00,68.1,61.6,30.23,ESE,112,0.6,0.9,85,0.00,,,0.00,JAVA,2013-02-19 13:55:00,
2013-02-19 09:00:00,68.4,62.2,30.23,SE,135,1.4,2.6,82,0.00,,,0.00,JAVA,2013-02-19 14:00:00,
2013-02-19 09:05:00,68.9,62.5,30.23,SE,135,1.1,2.6,79,0.00,,,0.00,JAVA,2013-02-19 14:05:00,
2013-02-19 09:10:00,69.4,62.6,30.23,SE,135,1.6,3.2,76,0.00,,,0.00,JAVA,2013-02-19 14:10:00,
2013-02-19 09:16:00,69.1,62.6,30.23,SSW,202,0.6,1.3,74,0.00,,,0.00,JAVA,2013-02-19 14:16:00,
2013-02-19 09:21:00,69.2,62.3,30.23,SW,225,1.7,2.8,71,0.00,,,0.00,JAVA,2013-02-19 14:21:00,
2013-02-19 09:26:00,69.5,61.8,30.23,South,180,0.9,2.3,69,0.00,,,0.00,JAVA,2013-02-19 14:26:00,
2013-02-19 09:32:00,69.1,61.2,30.23,SSW,202,2.2,3.9,67,0.00,,,0.00,JAVA,2013-02-19 14:32:00,
2013-02-19 09:37:00,69.0,60.5,30.23,SSW,202,1.5,3.8,66,0.00,,,0.00,JAVA,2013-02-19 14:37:00,
2013-02-19 09:42:00,69.9,59.8,30.24,SSW,202,1.5,3.7,65,0.00,,,0.00,JAVA,2013-02-19 14:42:00,
2013-02-19 09:47:00,70.9,59.3,30.23,SSE,157,2.2,3.3,64,0.00,,,0.00,JAVA,2013-02-19 14:47:00,
2013-02-19 09:53:00,71.3,58.8,30.24,SE,135,2.3,4.9,63,0.00,,,0.00,JAVA,2013-02-19 14:53:00,
2013-02-19 09:58:00,71.9,58.5,30.24,South,180,1.8,3.1,62,0.00,,,0.00,JAVA,2013-02-19 14:58:00,
2013-02-19 10:03:00,72.5,58.3,30.24,SE,135,2.6,4.1,61,0.00,,,0.00,JAVA,2013-02-19 15:03:00,
2013-02-19 10:08:00,72.8,58.2,30.24,East,90,2.3,3.5,60,0.00,,,0.00,JAVA,2013-02-19 15:08:00,
2013-02-19 10:13:00,73.1,58.2,30.23,SE,135,2.2,4.7,59,0.00,,,0.00,JAVA,2013-02-19 15:13:00,
2013-02-19 10:18:00,73.5,58.2,30.23,SE,135,2.0,3.1,58,0.00,,,0.00,JAVA,2013-02-19 15:18:00,
2013-02-19 10:23:00,73.5,58.3,30.23,NE,45,2.7,5.8,57,0.00,,,0.00,JAVA,2013-02-19 15:23:00,
2013-02-19 10:28:00,73.5,58.2,30.23,ESE,112,2.9,4.9,55,0.00,,,0.00,JAVA,2013-02-19 15:28:00,
2013-02-19 10:33:00,72.7,57.9,30.23,ESE,112,3.4,5.6,55,0.00,,,0.00,JAVA,2013-02-19 15:33:00,
2013-02-19 10:38:00,72.2,57.7,30.23,ESE,112,3.4,5.1,55,0.00,,,0.00,JAVA,2013-02-19 15:38:00,
2013-02-19 10:43:00,71.9,57.3,30.23,ESE,112,3.6,5.5,56,0.00,,,0.00,JAVA,2013-02-19 15:43:00,
2013-02-19 10:48:00,71.4,56.9,30.23,ESE,112,4.4,6.6,56,0.00,,,0.00,JAVA,2013-02-19 15:48:00,
2013-02-19 10:53:00,71.5,56.6,30.23,NE,45,2.7,5.2,57,0.00,,,0.00,JAVA,2013-02-19 15:53:00,
2013-02-19 10:58:00,71.6,56.4,30.23,SE,135,4.3,6.8,58,0.00,,,0.00,JAVA,2013-02-19 15:58:00,
2013-02-19 11:03:00,71.3,56.2,30.24,East,90,2.2,5.4,60,0.00,,,0.00,JAVA,2013-02-19 16:03:00,
2013-02-19 11:09:00,72.1,56.2,30.23,South,180,2.6,3.7,61,0.00,,,0.00,JAVA,2013-02-19 16:09:00,
2013-02-19 11:14:00,72.4,56.4,30.23,SSE,157,3.2,4.9,61,0.00,,,0.00,JAVA,2013-02-19 16:14:00,
2013-02-19 11:19:00,72.1,56.7,30.23,NE,45,3.4,6.1,61,0.00,,,0.00,JAVA,2013-02-19 16:19:00,
2013-02-19 11:24:00,72.3,57.0,30.23,East,90,3.0,4.6,61,0.00,,,0.00,JAVA,2013-02-19 16:24:00,
2013-02-19 11:29:00,72.5,57.3,30.23,East,90,2.2,4.0,61,0.00,,,0.00,JAVA,2013-02-19 16:29:00,
2013-02-19 11:34:00,73.1,57.7,30.23,SE,135,2.2,3.0,60,0.00,,,0.00,JAVA,2013-02-19 16:34:00,
2013-02-19 11:39:00,73.1,58.0,30.23,East,90,2.8,4.6,59,0.00,,,0.00,JAVA,2013-02-19 16:39:00,
2013-02-19 11:44:00,73.4,58.2,30.23,East,90,2.0,3.4,58,0.00,,,0.00,JAVA,2013-02-19 16:44:00,
2013-02-19 11:50:00,74.2,58.3,30.22,North,0,1.5,2.7,57,0.00,,,0.00,JAVA,2013-02-19 16:50:00,
2013-02-19 11:55:00,75.1,58.3,30.21,SE,135,2.2,4.7,56,0.00,,,0.00,JAVA,2013-02-19 16:55:00,
2013-02-19 12:00:00,75.4,58.4,30.21,SW,225,2.9,5.7,55,0.00,,,0.00,JAVA,2013-02-19 17:00:00,
2013-02-19 12:05:00,75.5,58.3,30.21,South,180,2.2,4.4,53,0.00,,,0.00,JAVA,2013-02-19 17:05:00,
2013-02-19 12:10:00,74.9,58.1,30.20,SE,135,2.6,4.7,51,0.00,,,0.00,JAVA,2013-02-19 17:10:00,
2013-02-19 12:15:00,74.9,57.8,30.21,SW,225,4.3,8.5,49,0.00,,,0.00,JAVA,2013-02-19 17:15:00,
2013-02-19 12:20:00,74.8,57.3,30.20,SSW,202,3.9,6.8,48,0.00,,,0.00,JAVA,2013-02-19 17:20:00,
2013-02-19 12:26:00,74.9,56.8,30.20,SW,225,4.8,8.1,46,0.00,,,0.00,JAVA,2013-02-19 17:26:00,
2013-02-19 12:31:00,74.4,56.1,30.20,WSW,247,6.1,11.1,45,0.00,,,0.00,JAVA,2013-02-19 17:31:00,
2013-02-19 12:36:00,74.9,55.3,30.19,SW,225,4.5,7.5,44,0.00,,,0.00,JAVA,2013-02-19 17:36:00,
2013-02-19 12:41:00,76.0,54.6,30.19,SW,225,5.9,8.4,44,0.00,,,0.00,JAVA,2013-02-19 17:41:00,
2013-02-19 12:46:00,76.1,53.9,30.19,SW,225,6.3,9.2,43,0.00,,,0.00,JAVA,2013-02-19 17:46:00,
2013-02-19 12:51:00,76.7,53.4,30.18,South,180,5.2,7.8,43,0.00,,,0.00,JAVA,2013-02-19 17:51:00,
2013-02-19 12:56:00,76.9,53.0,30.18,South,180,5.5,8.0,42,0.00,,,0.00,JAVA,2013-02-19 17:56:00,
2013-02-19 13:01:00,77.1,52.8,30.18,SSW,202,5.6,7.3,42,0.00,,,0.00,JAVA,2013-02-19 18:01:00,
2013-02-19 13:06:00,75.8,52.6,30.17,SW,225,5.1,7.8,42,0.00,,,0.00,JAVA,2013-02-19 18:06:00,
2013-02-19 13:11:00,76.0,52.4,30.17,SSW,202,6.0,9.6,42,0.00,,,0.00,JAVA,2013-02-19 18:11:00,
2013-02-19 13:16:00,77.0,52.3,30.17,South,180,5.0,6.9,41,0.00,,,0.00,JAVA,2013-02-19 18:16:00,
2013-02-19 13:21:00,77.1,52.4,30.17,SW,225,5.7,8.1,41,0.00,,,0.00,JAVA,2013-02-19 18:21:00,
2013-02-19 13:26:00,76.4,52.2,30.16,SSW,202,5.3,8.3,41,0.00,,,0.00,JAVA,2013-02-19 18:26:00,
2013-02-19 13:31:00,76.2,52.1,30.16,SSW,202,3.9,5.9,41,0.00,,,0.00,JAVA,2013-02-19 18:31:00,
2013-02-19 13:37:00,76.6,52.0,30.16,South,180,4.1,5.4,41,0.00,,,0.00,JAVA,2013-02-19 18:37:00,
2013-02-19 13:42:00,77.1,51.9,30.16,SW,225,4.8,5.8,42,0.00,,,0.00,JAVA,2013-02-19 18:42:00,
2013-02-19 13:47:00,76.4,51.9,30.15,SSW,202,5.6,8.3,42,0.00,,,0.00,JAVA,2013-02-19 18:47:00,
2013-02-19 13:52:00,76.0,51.9,30.16,South,180,4.1,6.0,42,0.00,,,0.00,JAVA,2013-02-19 18:52:00,
2013-02-19 13:57:00,76.1,52.0,30.15,South,180,3.6,5.4,42,0.00,,,0.00,JAVA,2013-02-19 18:57:00,
2013-02-19 14:02:00,75.8,52.0,30.15,South,180,4.3,6.5,43,0.00,,,0.00,JAVA,2013-02-19 19:02:00,
2013-02-19 14:07:00,75.9,52.0,30.15,South,180,3.4,5.0,44,0.00,,,0.00,JAVA,2013-02-19 19:07:00,
2013-02-19 14:12:00,75.9,52.2,30.14,SSW,202,3.0,5.0,44,0.00,,,0.00,JAVA,2013-02-19 19:12:00,
2013-02-19 14:17:00,75.8,52.3,30.14,WSW,247,5.1,8.1,44,0.00,,,0.00,JAVA,2013-02-19 19:17:00,
2013-02-19 14:22:00,76.1,52.5,30.14,SSW,202,3.5,6.0,45,0.00,,,0.00,JAVA,2013-02-19 19:22:00,
2013-02-19 14:27:00,76.7,52.7,30.14,South,180,3.6,5.0,45,0.00,,,0.00,JAVA,2013-02-19 19:27:00,
2013-02-19 14:32:00,76.8,52.9,30.15,SW,225,4.5,7.2,45,0.00,,,0.00,JAVA,2013-02-19 19:32:00,
2013-02-19 14:37:00,76.7,53.3,30.14,South,180,4.1,6.2,45,0.00,,,0.00,JAVA,2013-02-19 19:37:00,
2013-02-19 14:42:00,77.2,53.5,30.14,SSE,157,4.4,8.3,45,0.00,,,0.00,JAVA,2013-02-19 19:42:00,
2013-02-19 14:48:00,77.8,53.9,30.13,South,180,4.9,6.6,45,0.00,,,0.00,JAVA,2013-02-19 19:48:00,
2013-02-19 14:53:00,77.3,54.2,30.12,SW,225,4.3,6.4,45,0.00,,,0.00,JAVA,2013-02-19 19:53:00,
2013-02-19 14:58:00,76.7,54.4,30.13,SE,135,3.9,6.1,45,0.00,,,0.00,JAVA,2013-02-19 19:58:00,
2013-02-19 15:03:00,77.6,54.5,30.12,SW,225,5.1,7.8,44,0.00,,,0.00,JAVA,2013-02-19 20:03:00,
2013-02-19 15:08:00,77.1,54.6,30.12,South,180,5.3,7.4,44,0.00,,,0.00,JAVA,2013-02-19 20:08:00,
2013-02-19 15:13:00,76.3,54.5,30.12,West,270,3.6,5.4,44,0.00,,,0.00,JAVA,2013-02-19 20:13:00,
2013-02-19 15:18:00,75.5,54.3,30.12,SW,225,4.5,6.4,44,0.00,,,0.00,JAVA,2013-02-19 20:18:00,
2013-02-19 15:23:00,75.5,54.1,30.12,SW,225,4.1,5.5,44,0.00,,,0.00,JAVA,2013-02-19 20:23:00,
2013-02-19 15:28:00,75.7,53.8,30.12,West,270,2.5,4.6,45,0.00,,,0.00,JAVA,2013-02-19 20:28:00,
2013-02-19 15:34:00,76.1,53.6,30.11,WSW,247,3.5,4.7,45,0.00,,,0.00,JAVA,2013-02-19 20:34:00,
2013-02-19 15:39:00,77.7,53.6,30.11,SSW,202,3.8,5.8,45,0.00,,,0.00,JAVA,2013-02-19 20:39:00,
2013-02-19 15:44:00,78.4,53.7,30.11,SW,225,4.3,6.3,45,0.00,,,0.00,JAVA,2013-02-19 20:44:00,
2013-02-19 15:49:00,78.2,53.9,30.11,South,180,4.8,7.2,45,0.00,,,0.00,JAVA,2013-02-19 20:49:00,
2013-02-19 15:54:00,78.2,54.1,30.11,WSW,247,5.3,7.9,45,0.00,,,0.00,JAVA,2013-02-19 20:54:00,
2013-02-19 15:59:00,77.7,54.4,30.11,SSE,157,4.4,6.5,44,0.00,,,0.00,JAVA,2013-02-19 20:59:00,
2013-02-19 16:04:00,77.9,54.6,30.11,SW,225,3.0,4.1,44,0.00,,,0.00,JAVA,2013-02-19 21:04:00,
2013-02-19 16:09:00,78.1,54.8,30.11,South,180,3.3,5.2,43,0.00,,,0.00,JAVA,2013-02-19 21:09:00,
2013-02-19 16:14:00,78.4,55.0,30.10,South,180,4.2,6.4,43,0.00,,,0.00,JAVA,2013-02-19 21:14:00,
2013-02-19 16:19:00,78.5,55.1,30.10,WSW,247,4.4,6.7,42,0.00,,,0.00,JAVA,2013-02-19 21:19:00,
2013-02-19 16:25:00,78.5,54.9,30.10,SW,225,5.1,7.2,42,0.00,,,0.00,JAVA,2013-02-19 21:25:00,
2013-02-19 16:30:00,77.9,54.7,30.10,South,180,4.1,6.8,42,0.00,,,0.00,JAVA,2013-02-19 21:30:00,
2013-02-19 16:35:00,77.3,54.4,30.11,SW,225,5.6,7.1,42,0.00,,,0.00,JAVA,2013-02-19 21:35:00,
2013-02-19 16:40:00,76.9,54.1,30.10,WSW,247,3.6,6.2,43,0.00,,,0.00,JAVA,2013-02-19 21:40:00,
2013-02-19 16:45:00,76.8,53.9,30.10,SSE,157,5.2,7.0,43,0.00,,,0.00,JAVA,2013-02-19 21:45:00,
2013-02-19 16:50:00,76.8,53.7,30.11,SW,225,4.1,6.1,43,0.00,,,0.00,JAVA,2013-02-19 21:50:00,
2013-02-19 16:55:00,76.7,53.5,30.11,SSW,202,3.1,4.3,43,0.00,,,0.00,JAVA,2013-02-19 21:55:00,
2013-02-19 17:01:00,77.0,53.4,30.10,South,180,2.9,4.3,43,0.00,,,0.00,JAVA,2013-02-19 22:01:00,
2013-02-19 17:06:00,77.1,53.3,30.11,South,180,3.3,5.7,44,0.00,,,0.00,JAVA,2013-02-19 22:06:00,
2013-02-19 17:11:00,77.0,53.3,30.11,SSW,202,2.9,5.4,44,0.00,,,0.00,JAVA,2013-02-19 22:11:00,
2013-02-19 17:16:00,76.7,53.4,30.11,South,180,3.1,4.6,44,0.00,,,0.00,JAVA,2013-02-19 22:16:00,
2013-02-19 17:21:00,76.3,53.4,30.11,SW,225,4.2,7.1,44,0.00,,,0.00,JAVA,2013-02-19 22:21:00,
2013-02-19 17:26:00,76.1,53.5,30.10,WSW,247,3.1,4.5,44,0.00,,,0.00,JAVA,2013-02-19 22:26:00,
2013-02-19 17:31:00,75.8,53.5,30.11,SW,225,3.2,4.2,44,0.00,,,0.00,JAVA,2013-02-19 22:31:00,
2013-02-19 17:36:00,75.3,53.5,30.11,West,270,3.9,5.4,45,0.00,,,0.00,JAVA,2013-02-19 22:36:00,
2013-02-19 17:42:00,75.0,53.4,30.11,ESE,112,2.6,5.0,45,0.00,,,0.00,JAVA,2013-02-19 22:42:00,
2013-02-19 17:47:00,74.8,53.3,30.11,South,180,2.0,3.1,45,0.00,,,0.00,JAVA,2013-02-19 22:47:00,
2013-02-19 17:52:00,74.4,53.2,30.11,South,180,1.7,2.2,46,0.00,,,0.00,JAVA,2013-02-19 22:52:00,
2013-02-19 17:57:00,74.1,53.0,30.11,SE,135,1.2,2.6,47,0.00,,,0.00,JAVA,2013-02-19 22:57:00,
2013-02-19 18:02:00,73.7,52.9,30.11,NW,315,1.0,1.7,47,0.00,,,0.00,JAVA,2013-02-19 23:02:00,
2013-02-19 18:07:00,73.3,52.9,30.12,SSW,202,0.8,1.3,48,0.00,,,0.00,JAVA,2013-02-19 23:07:00,
2013-02-19 18:12:00,72.7,52.9,30.12,SE,135,0.4,0.9,49,0.00,,,0.00,JAVA,2013-02-19 23:12:00,
2013-02-19 18:17:00,72.2,52.8,30.12,SE,135,0.0,0.0,50,0.00,,,0.00,JAVA,2013-02-19 23:17:00,
2013-02-19 18:22:00,71.5,52.9,30.12,East,90,0.0,0.0,51,0.00,,,0.00,JAVA,2013-02-19 23:22:00,
2013-02-19 18:27:00,70.8,52.8,30.12,ESE,112,0.0,0.0,51,0.00,,,0.00,JAVA,2013-02-19 23:27:00,
2013-02-19 18:32:00,70.0,52.8,30.12,NNW,337,0.0,0.0,52,0.00,,,0.00,JAVA,2013-02-19 23:32:00,
2013-02-19 18:38:00,69.6,52.7,30.12,North,0,0.7,1.8,53,0.00,,,0.00,JAVA,2013-02-19 23:38:00,
2013-02-19 18:43:00,69.1,52.6,30.12,East,90,0.0,0.0,54,0.00,,,0.00,JAVA,2013-02-19 23:43:00,
2013-02-19 18:48:00,68.7,52.6,30.12,East,90,0.0,0.0,55,0.00,,,0.00,JAVA,2013-02-19 23:48:00,
2013-02-19 18:53:00,68.0,52.5,30.12,East,90,0.0,0.0,56,0.00,,,0.00,JAVA,2013-02-19 23:53:00,
2013-02-19 18:58:00,67.4,52.4,30.13,East,90,0.0,0.0,57,0.00,,,0.00,JAVA,2013-02-19 23:58:00,
2013-02-19 19:03:00,66.9,52.3,30.13,East,90,0.0,0.0,58,0.00,,,0.00,JAVA,2013-02-20 00:03:00,
2013-02-19 19:08:00,66.3,52.2,30.13,East,90,0.0,0.0,59,0.00,,,0.00,JAVA,2013-02-20 00:08:00,
2013-02-19 19:13:00,65.9,52.1,-18.04,East,90,0.0,0.0,60,0.00,,,0.00,JAVA,2013-02-20 00:13:00,
2013-02-19 19:18:00,65.6,52.1,30.13,East,90,0.0,0.0,60,0.00,,,0.00,JAVA,2013-02-20 00:18:00,
2013-02-19 19:23:00,65.5,52.1,30.13,East,90,0.0,0.0,61,0.00,,,0.00,JAVA,2013-02-20 00:23:00,
2013-02-19 19:28:00,65.4,52.1,30.13,East,90,0.0,0.0,62,0.00,,,0.00,JAVA,2013-02-20 00:28:00,
2013-02-19 19:33:00,65.4,52.1,30.13,East,90,0.0,0.0,63,0.00,,,0.00,JAVA,2013-02-20 00:33:00,
2013-02-19 19:39:00,65.2,52.2,30.13,East,90,0.0,0.0,64,0.00,,,0.00,JAVA,2013-02-20 00:39:00,
2013-02-19 19:44:00,65.1,52.3,30.13,East,90,0.0,0.0,65,0.00,,,0.00,JAVA,2013-02-20 00:44:00,
2013-02-19 19:49:00,65.0,52.5,30.14,East,90,0.0,0.0,65,0.00,,,0.00,JAVA,2013-02-20 00:49:00,
2013-02-19 19:54:00,64.9,52.6,30.13,East,90,0.0,0.0,66,0.00,,,0.00,JAVA,2013-02-20 00:54:00,
2013-02-19 19:59:00,64.6,52.8,30.13,East,90,0.0,0.0,67,0.00,,,0.00,JAVA,2013-02-20 00:59:00,
2013-02-19 20:04:00,64.5,53.0,30.13,East,90,0.0,0.0,67,0.00,,,0.00,JAVA,2013-02-20 01:04:00,
2013-02-19 20:10:00,64.4,53.2,30.13,East,90,0.0,0.0,68,0.00,,,0.00,JAVA,2013-02-20 01:10:00,
2013-02-19 20:15:00,64.2,53.3,30.13,East,90,0.0,0.0,68,0.00,,,0.00,JAVA,2013-02-20 01:15:00,
2013-02-19 20:20:00,64.1,53.4,30.13,East,90,0.0,0.0,68,0.00,,,0.00,JAVA,2013-02-20 01:20:00,
2013-02-19 20:25:00,64.0,53.5,-18.04,East,90,0.0,0.0,68,0.00,,,0.00,JAVA,2013-02-20 01:25:00,
2013-02-19 20:30:00,64.0,53.5,30.13,East,90,0.0,0.0,69,0.00,,,0.00,JAVA,2013-02-20 01:30:00,
2013-02-19 20:36:00,63.7,53.5,30.13,East,90,0.0,0.0,69,0.00,,,0.00,JAVA,2013-02-20 01:36:00,
2013-02-19 20:41:00,63.6,53.6,30.14,East,90,0.0,0.0,69,0.00,,,0.00,JAVA,2013-02-20 01:41:00,
2013-02-19 20:46:00,63.3,53.5,30.14,East,90,0.0,0.0,69,0.00,,,0.00,JAVA,2013-02-20 01:46:00,
2013-02-19 20:51:00,63.2,53.5,30.14,South,180,0.0,0.0,70,0.00,,,0.00,JAVA,2013-02-20 01:51:00,
2013-02-19 20:56:00,63.2,53.4,30.15,South,180,0.2,0.8,70,0.00,,,0.00,JAVA,2013-02-20 01:56:00,
2013-02-19 21:01:00,63.1,53.4,30.14,North,0,0.0,0.0,70,0.00,,,0.00,JAVA,2013-02-20 02:01:00,
2013-02-19 21:06:00,62.8,53.4,30.14,NNE,22,0.1,0.4,71,0.00,,,0.00,JAVA,2013-02-20 02:06:00,
2013-02-19 21:11:00,62.7,53.4,30.15,NNW,337,0.1,0.3,71,0.00,,,0.00,JAVA,2013-02-20 02:11:00,
2013-02-19 21:16:00,62.7,53.4,30.15,North,0,0.0,0.1,71,0.00,,,0.00,JAVA,2013-02-20 02:16:00,
2013-02-19 21:21:00,62.6,53.4,30.15,North,0,0.0,0.0,72,0.00,,,0.00,JAVA,2013-02-20 02:21:00,
2013-02-19 21:26:00,62.4,53.4,30.16,North,0,0.0,0.0,72,0.00,,,0.00,JAVA,2013-02-20 02:26:00,
2013-02-19 21:31:00,62.3,53.4,30.16,North,0,0.0,0.0,72,0.00,,,0.00,JAVA,2013-02-20 02:31:00,
2013-02-19 21:36:00,62.0,53.4,30.15,NE,45,0.0,0.0,73,0.00,,,0.00,JAVA,2013-02-20 02:36:00,
2013-02-19 21:41:00,61.8,53.4,30.15,South,180,0.0,0.0,73,0.00,,,0.00,JAVA,2013-02-20 02:41:00,
2013-02-19 21:46:00,61.7,53.4,30.15,South,180,0.0,0.0,73,0.00,,,0.00,JAVA,2013-02-20 02:46:00,
2013-02-19 21:52:00,61.7,53.3,30.15,East,90,0.0,0.0,73,0.00,,,0.00,JAVA,2013-02-20 02:52:00,
2013-02-19 21:57:00,61.6,53.3,30.15,East,90,0.0,0.0,73,0.00,,,0.00,JAVA,2013-02-20 02:57:00,
2013-02-19 22:02:00,61.4,53.2,30.16,South,180,0.0,0.0,73,0.00,,,0.00,JAVA,2013-02-20 03:02:00,
2013-02-19 22:07:00,61.1,53.1,30.15,SE,135,0.0,0.0,74,0.00,,,0.00,JAVA,2013-02-20 03:07:00,
2013-02-19 22:12:00,60.9,53.0,30.15,SE,135,0.0,0.0,74,0.00,,,0.00,JAVA,2013-02-20 03:12:00,
2013-02-19 22:17:00,60.7,52.9,30.15,ESE,112,0.0,0.0,74,0.00,,,0.00,JAVA,2013-02-20 03:17:00,
2013-02-19 22:22:00,60.5,52.9,30.15,East,90,0.0,0.0,74,0.00,,,0.00,JAVA,2013-02-20 03:22:00,
2013-02-19 22:27:00,60.2,52.8,30.15,East,90,0.0,0.0,75,0.00,,,0.00,JAVA,2013-02-20 03:27:00,
2013-02-19 22:32:00,60.0,52.7,30.15,East,90,0.0,0.0,75,0.00,,,0.00,JAVA,2013-02-20 03:32:00,
2013-02-19 22:37:00,59.9,52.5,30.15,East,90,0.0,0.0,75,0.00,,,0.00,JAVA,2013-02-20 03:37:00,
2013-02-19 22:42:00,59.8,52.4,30.14,East,90,0.0,0.0,75,0.00,,,0.00,JAVA,2013-02-20 03:42:00,
2013-02-19 22:47:00,59.6,52.3,30.14,East,90,0.0,0.0,75,0.00,,,0.00,JAVA,2013-02-20 03:47:00,
2013-02-19 22:53:00,59.5,52.2,30.14,East,90,0.0,0.0,76,0.00,,,0.00,JAVA,2013-02-20 03:53:00,
2013-02-19 22:58:00,59.2,52.1,30.14,East,90,0.0,0.0,76,0.00,,,0.00,JAVA,2013-02-20 03:58:00,
2013-02-19 23:03:00,59.0,52.0,30.14,East,90,0.0,0.0,76,0.00,,,0.00,JAVA,2013-02-20 04:03:00,
2013-02-19 23:08:00,58.9,51.9,30.14,West,270,0.0,0.0,77,0.00,,,0.00,JAVA,2013-02-20 04:08:00,
2013-02-19 23:13:00,59.1,51.9,30.14,NW,315,0.2,0.8,77,0.00,,,0.00,JAVA,2013-02-20 04:13:00,
2013-02-19 23:18:00,59.0,51.9,30.13,NW,315,0.0,0.1,78,0.00,,,0.00,JAVA,2013-02-20 04:18:00,
2013-02-19 23:23:00,58.9,51.9,30.13,ENE,67,0.0,0.1,78,0.00,,,0.00,JAVA,2013-02-20 04:23:00,
2013-02-19 23:28:00,58.7,51.9,30.13,East,90,0.0,0.0,79,0.00,,,0.00,JAVA,2013-02-20 04:28:00,
2013-02-19 23:33:00,58.3,52.0,30.14,East,90,0.0,0.0,79,0.00,,,0.00,JAVA,2013-02-20 04:33:00,
2013-02-19 23:38:00,58.1,52.0,30.14,East,90,0.0,0.0,80,0.00,,,0.00,JAVA,2013-02-20 04:38:00,
2013-02-19 23:43:00,57.9,52.0,30.13,East,90,0.0,0.0,80,0.00,,,0.00,JAVA,2013-02-20 04:43:00,
2013-02-19 23:48:00,57.7,52.0,30.14,East,90,0.0,0.0,80,0.00,,,0.00,JAVA,2013-02-20 04:48:00,
2013-02-19 23:53:00,57.3,52.0,30.13,East,90,0.0,0.0,80,0.00,,,0.00,JAVA,2013-02-20 04:53:00,
2013-02-19 23:58:00,57.4,51.9,30.13,East,90,0.0,0.0,80,0.00,,,0.00,JAVA,2013-02-20 04:58:00,